Current Version              Previous Version:    01  02  03  04  05  06  07  08  09  10  11  12  13  14  15  16  17  18  19  20  21  22  23  24  25  26  27  28  29  30  
   31  32  33  34  35  36  37  38  39  40  41  42  43  44  45  46  47  48  49  50  51  52  53  54  55  56  57  58  59  60  

[Printable]
732
ASUS44 KFWD 250303
RWRTX
NORTH TEXAS HOURLY WEATHER ROUNDUP
NATIONAL WEATHER SERVICE FORT WORTH TX
1000 PM CDT THU APR 24 2014

NOTE: "FAIR" INDICATES FEW OR NO CLOUDS BELOW 12,000 FEET WITH NO
SIGNIFICANT WEATHER AND/OR OBSTRUCTIONS TO VISIBILITY.

TXZ118-119-250400-
DALLAS/FORT WORTH METROPLEX

CITY           SKY/WX    TMP DP  RH WIND       PRES   REMARKS
DFW AIRPORT    PTCLDY    69  46  43 N9        29.92R
DALLAS LOVE    PTCLDY    72  44  36 N8        29.93R
FTW MEACHAM    CLEAR     68  47  46 N9        29.93R
DAL-EXECUTIVE  CLEAR     69  46  43 NW3       29.93R
FTW-ALLIANCE   MOCLDY    64  46  52 N7        29.93R
FTW-NAS-JRB    CLEAR     70  50  49 N3        29.98R
FTW-SPINKS     CLEAR     66  44  45 NE5       29.95R
ARLINGTON      CLEAR     66  46  48 N7        29.93R
ADDISON        CLEAR     72  41  33 N10       29.93R
MESQUITE       CLEAR     68  44  42 N5        29.93
LANCASTER      CLEAR     64  47  55 NW3       29.94R
$$

TXZ091>094-102>105-117-120-121-131>134-250400-
NORTH CENTRAL TEXAS

CITY           SKY/WX    TMP DP  RH WIND       PRES   REMARKS
SHRMAN/DENISON CLEAR     61  42  48 N5        29.95R
BOWIE          PTCLDY    58  47  66 CALM      29.95R
BRIDGEPORT     CLEAR     56  48  75 CALM      29.96R
DECATUR        CLEAR     66  41  40 NE3       29.95R
DENTON         CLEAR     62  48  60 N7        29.94R
MCKINNEY       CLEAR     68  47  46 NW7       29.93R
GREENVILLE     CLEAR     64  50  59 CALM      29.93R
ROCKWALL       CLEAR     68  48  49 NW8       29.92R
TERRELL        CLEAR     68  47  46 NW7       29.93R
WAXAHACHIE     CLEAR     64  45  49 N6        29.95R
CLEBURNE       CLEAR     66  45  45 MISG      29.95R
GRANBURY       CLEAR     64  47  55 CALM      29.95R
$$

TXZ083>090-098>101-113>116-127>130-139>142-154-155-250400-
WESTERN NORTH TEXAS

CITY           SKY/WX    TMP DP  RH WIND       PRES   REMARKS
WICHITA FALLS  PTCLDY    63  46  54 NE3       29.95R
WF-KICKAPOO    PTCLDY    64  47  53 N5        29.96R
VERNON         MOCLDY    67  35  30 E7        29.96R
ABILENE        PTCLDY    68  34  28 E7        29.96R
ABILENE-DYESS  PTCLDY    68  33  27 E3        29.96R
BRECKENRIDGE   MOCLDY    70  36  28 NE5       29.95R
MINERAL WELLS  CLEAR     66  43  43 CALM      29.94R
STEPHENVILLE   CLEAR     68  39  35 N5        29.98R
COMANCHE       CLEAR     70  35  27 CALM      29.95R
BROWNWOOD      PTCLDY    61  39  44 CALM      29.95R
BRADY          CLEAR     66  34  30 NE8       29.96R
$$

TXZ143>147-156>162-174-175-250400-
CENTRAL TEXAS

CITY           SKY/WX    TMP DP  RH WIND       PRES   REMARKS
WACO           CLEAR     66  45  46 N8        29.92R
WACO-TSTC      CLEAR     64  45  48 NW7       29.86S
WACO-MCGREGOR  CLEAR     66  43  42 N6        29.94R
HILLSBORO      CLEAR     65  45  48 N7        29.93R
CORSICANA      CLEAR     69  49  48 N5        29.93R
MEXIA          CLEAR     69  49  48 N3        29.91R
HEARNE         CLEAR     69  62  79 CALM      29.91R
TEMPLE         CLEAR     68  39  34 N5        29.95R
KILLEEN        CLEAR     72  43  35 NW5       29.93R
KILLEEN-SKYLRK CLEAR     70  32  24 N6        29.92R
HAMILTON       CLEAR     70  37  30 NE7       29.95R
LAMPASAS       CLEAR     71  41  34 N5        29.93R
$$

TXZ095>097-106>112-122>126-135>138-148>153-164>167-250400-
EAST TEXAS

CITY           SKY/WX    TMP DP  RH WIND       PRES   REMARKS
PARIS          CLEAR     64  45  48 NW10      29.92R
SULPHUR SPRNGS CLEAR     68  50  53 NW7       29.94R
CLARKSVILLE    CLEAR     67  46  47 CALM      29.91R
MINEOLA        CLEAR     64  55  72 CALM      29.92R
TYLER          CLEAR     69  51  52 NW6       29.91R
LONGVIEW       CLEAR     66  53  63 NW5       29.89R
ATHENS         CLEAR     68  52  56 CALM      29.91R
PALESTINE      CLEAR     69  53  56 N5        29.92R
JACKSONVILLE   CLEAR     73  53  50 NW3       29.93R
NACOGDOCHES    PTCLDY    68  64  88 CALM      29.90R
LUFKIN         PTCLDY    73  67  81 CALM      29.89R
$$

SUPPLEMENTAL OBSERVATIONS (CENTRAL)

CITY           SKY/WX    TMP DP  RH WIND       PRES   REMARKS
$$

SUPPLEMENTAL OBSERVATIONS (WEST)

CITY           SKY/WX    TMP DP  RH WIND       PRES   REMARKS
$$

SUPPLEMENTAL OBSERVATIONS (EAST)

CITY           SKY/WX    TMP DP  RH WIND       PRES   REMARKS
$$

SUPPLEMENTAL OBSERVATIONS ARE A COLLECTION OF AUTOMATED INSTRUMENTS
THAT ARE MAINTAINED BY A VARIETY OF FEDERAL AND STATE AGENCIES.
CERTAIN ELEMENTS...SUCH AS HUMIDITY VALUES AND SUSTAINED WIND
SPEEDS...MAY BE APPROXIMATED.